Starlink 3131

operational
NORAD ID: 49427 Int'l Des: 2021-104 Owner: SPXS Country: US Constellation: starlink
LEOCIRCULAR

Über Starlink 3131

Beschreibung wird geladen...

Live-Position

3D-Globus wird geladen...

Nächste Überflüge

Höhenverlauf

Altitude vs Time

uPlot chart will show altitude changes over time

Zweizeiliger Elementsatz

1 49427U 21104V 26034.49252815 .00007111 00000-0 46430-3 0 9995
2 49427 53.2181 22.6472 0001380 86.5137 273.6013 15.08850527233475
Epoch: 3. Feb. 2026 • Age: 16 hours

Aktueller Status

Höhe 540.8 km
Geschwindigkeit 7.59 km/s
Subsatellitenpunkt -1.86°S, 171.65°W
Startdatum 13. Nov. 2021
Alter 4.2 years
Typ internet

Technische Details

Klassifizierung Payload
Masse 290.00 kg
Trockenmasse 270.00 kg
Gesamtmasse 290.00 kg
Länge 0.20 m
Durchmesser 2.80 m
Spannweite 9.00 m
Form Box + pan
Hersteller SPXS
Bus-Typ Starlink
Phasenstatus In Orbit
Besitzer/Staat SPXS/US

Große Konstellationen

Loading constellations...